Regional Weather Roundup
Issued by NWS Little Rock, AR

Home | Current Version | Previous Version | Graphics & Text | Print | Product List | Glossary On
Versions: 1 2 3 4 5 6 7 8 9 10 11 12 13 14 15 16 17 18 19 20 21 22 23 24 25 26 27 28 29 30 31
000
ASUS44 KLZK 211305
RWRLZK

WEATHER ROUNDUP FOR ARKANSAS
NATIONAL WEATHER SERVICE LITTLE ROCK AR
800 AM CDT MON AUG 21 2017

NOTE: "FAIR" INDICATES FEW OR NO CLOUDS BELOW 12,000 FEET WITH NO
SIGNIFICANT WEATHER AND/OR OBSTRUCTIONS TO VISIBILITY.

ARZ001-003-010-029-211400-
NORTHWEST ARKANSAS

CITY           SKY/WX    TMP DP  RH WIND       PRES   REMARKS
FAYETTEVILLE   SUNNY     74  72  93 CALM      30.14R
FORT SMITH     SUNNY     76  73  91 NE6       30.10R
HARRISON       SUNNY     76  73  91 CALM      30.16R
BENTONVILLE    SUNNY     75  70  83 S3        30.15R
ROGERS         SUNNY     76  72  87 SE5       30.16R
SILOAM SPGS    SUNNY     73  70  88 S3        30.13R
HIGHFILL       SUNNY     73  71  93 E3        30.14R
SPRINGDALE     SUNNY     75  72  88 CALM      30.16R
$$

ARZ004-005-016-211400-
NORTH CENTRAL ARKANSAS

CITY           SKY/WX    TMP DP  RH WIND       PRES   REMARKS
BATESVILLE     SUNNY     77  73  88 E3        30.13R
FLIPPIN        SUNNY     73  68  83 CALM      30.11S
MTN HOME       MOSUNNY   76  75  97 CALM      30.13R
$$

ARZ040-041-211400-
WEST CENTRAL ARKANSAS

CITY           SKY/WX    TMP DP  RH WIND       PRES   REMARKS
MENA           SUNNY     73  73 100 CALM      30.15R
MOUNT IDA      SUNNY     73  71  93 CALM      30.12R
$$

ARZ009-017-025-026-028-211400-
NORTHEAST ARKANSAS

CITY           SKY/WX    TMP DP  RH WIND       PRES   REMARKS
CORNING        FAIR      79  79 100 CALM      30.13R
JONESBORO      SUNNY     78  77  96 CALM      30.12R
NEWPORT        SUNNY     77  75  93 CALM      30.13R
WALNUT RIDGE   SUNNY     75  73  94 CALM      30.12F
BLYTHEVILLE    SUNNY     79  76  90 CALM      30.13R
NW BLYTHEVILLE SUNNY     82  73  74 CALM      30.13  HX  88
$$

ARZ022-023-033-042-044-211400-
CENTRAL ARKANSAS

CITY           SKY/WX    TMP DP  RH WIND       PRES   REMARKS
LITTLE ROCK    MOSUNNY   79  77  94 W5        30.11R
N LITTLE ROCK    N/A     80  75  83 CALM      30.11R HX  85
JACKSONVILLE   SUNNY     81  78  91 CALM      30.10R HX  90
CONWAY           N/A     79  77  94 CALM      30.09S FOG
SEARCY         SUNNY     79  77  94 MISG      30.13R
HOT SPRINGS    SUNNY     79  75  87 CALM      30.13R
RUSSELLVILLE   SUNNY     78  77  96 CALM      30.11R
CLINTON        CLOUDY    73  72  94 CALM      30.13R
$$

ARZ036-211400-
EAST ARKANSAS

CITY           SKY/WX    TMP DP  RH WIND       PRES   REMARKS
WEST MEMPHIS   SUNNY     79  77  94 S3        30.12R
$$

ARZ050-053-066-070-073-211400-
SOUTHWEST ARKANSAS

CITY           SKY/WX    TMP DP  RH WIND       PRES   REMARKS
ARKADELPHIA    FAIR      76  74  93 CALM      30.12R
CAMDEN         SUNNY     77  73  88 CALM      30.10R
TEXARKANA      SUNNY     76  75  97 S3        30.11R
EL DORADO      SUNNY     77  75  93 CALM      30.11S
DE QUEEN       SUNNY     76  75  97 CALM      30.10R
$$

ARZ056-057-069-211400-
SOUTHEAST ARKANSAS

CITY           SKY/WX    TMP DP  RH WIND       PRES   REMARKS
PINE BLUFF     SUNNY     79  75  87 CALM      30.11S
MONTICELLO     SUNNY     81  77  88 CALM      30.11R HX  88

$$






USA.gov is the U.S. government's official web portal to all federal, state and local government web resources and services.